Total_Precipitation_Accumulation
0.69 0.76 0.86 0.94 1.09 1.16 1.12 1.13 1.07 1.04 1.06 1.07 1.06 1.09 1.05 1.00 1.00 1.05 1.03 1.08 1.14 1.24 1.28 1.24 1.23 1.30 1.32 1.23 1.23 1.26 1.35 1.49 1.52 1.51 1.64 1.65 1.49 1.28 1.24 1.26 1.24 1.23 1.07
0.62 0.72 0.80 0.86 0.98 1.10 1.05 1.09 1.15 1.11 1.09 1.04 1.02 1.09 1.03 1.01 1.04 0.99 0.99 1.06 1.16 1.24 1.32 1.45 1.46 1.42 1.38 1.32 1.34 1.36 1.46 1.66 1.70 1.65 1.66 1.68 1.58 1.43 1.34 1.24 1.11 1.10 1.08
0.58 0.70 0.78 0.78 0.86 0.99 1.05 1.05 1.10 1.13 1.16 1.14 1.08 1.08 1.08 1.10 1.11 1.01 0.98 0.99 1.01 1.03 1.14 1.40 1.62 1.80 1.70 1.52 1.43 1.40 1.47 1.59 1.74 1.68 1.67 1.78 1.75 1.61 1.47 1.28 1.14 1.10 0.96
0.58 0.65 0.75 0.79 0.91 1.03 1.07 1.07 1.09 1.08 1.13 1.19 1.22 1.20 1.18 1.14 1.09 1.07 1.11 1.10 1.07 1.00 1.02 1.14 1.28 1.48 1.64 1.72 1.58 1.45 1.44 1.57 1.73 1.77 1.86 2.09 2.11 1.93 1.67 1.45 1.33 1.19 1.04
0.78 0.86 0.93 0.95 1.02 1.13 1.19 1.14 1.19 1.19 1.19 1.32 1.38 1.36 1.33 1.28 1.17 1.22 1.29 1.19 1.19 1.14 1.10 1.09 1.06 1.15 1.28 1.42 1.47 1.57 1.59 1.60 1.71 1.81 2.01 2.43 2.43 2.17 1.76 1.53 1.44 1.37 1.20
1.11 1.23 1.23 1.27 1.31 1.31 1.30 1.26 1.33 1.41 1.54 1.59 1.54 1.51 1.49 1.35 1.39 1.34 1.31 1.29 1.32 1.31 1.27 1.20 1.11 1.05 1.08 1.16 1.23 1.33 1.47 1.54 1.59 1.70 1.89 2.19 2.34 2.20 1.93 1.70 1.51 1.38 1.28
1.10 1.23 1.33 1.36 1.38 1.43 1.43 1.45 1.45 1.51 1.59 1.65 1.71 1.71 1.69 1.74 1.64 1.36 1.29 1.29 1.34 1.38 1.43 1.43 1.19 1.02 1.07 1.05 1.14 1.16 1.19 1.30 1.41 1.51 1.68 1.89 2.20 2.30 2.14 1.77 1.62 1.50 1.29
1.14 1.26 1.41 1.45 1.50 1.52 1.48 1.42 1.40 1.42 1.42 1.39 1.38 1.38 1.46 1.47 1.41 1.21 1.14 1.07 1.15 1.20 1.21 1.22 1.19 1.06 0.99 0.98 0.99 0.97 0.95 0.97 1.03 1.11 1.25 1.51 1.80 2.14 2.31 2.08 1.90 1.71 1.46
1.26 1.41 1.51 1.59 1.67 1.60 1.49 1.43 1.33 1.31 1.23 1.16 1.15 1.17 1.20 1.26 1.24 1.09 1.03 0.95 0.98 0.99 0.98 1.02 1.06 0.97 0.93 0.81 0.79 0.82 0.82 0.80 0.79 0.83 0.91 1.09 1.35 1.66 1.99 2.12 1.85 1.51 1.36
1.23 1.32 1.45 1.53 1.65 1.68 1.58 1.52 1.45 1.42 1.33 1.27 1.22 1.21 1.22 1.31 1.35 1.15 1.06 0.97 0.99 1.01 1.10 1.13 1.09 0.96 0.86 0.69 0.67 0.72 0.72 0.68 0.71 0.71 0.70 0.77 0.90 1.15 1.51 1.65 1.68 1.43 1.20
1.06 1.06 1.18 1.32 1.46 1.52 1.53 1.49 1.53 1.51 1.42 1.28 1.16 1.10 1.11 1.20 1.31 1.16 1.02 0.93 0.98 1.07 1.17 1.24 1.18 1.01 0.76 0.62 0.55 0.56 0.55 0.56 0.61 0.64 0.65 0.69 0.82 1.00 1.16 1.37 1.51 1.43 1.19
1.12 1.18 1.23 1.27 1.27 1.26 1.29 1.30 1.37 1.42 1.39 1.29 1.14 1.00 0.96 0.93 0.92 0.95 0.82 0.74 0.79 0.91 1.04 1.17 1.18 1.00 0.78 0.62 0.52 0.46 0.44 0.41 0.45 0.52 0.55 0.56 0.63 0.75 0.93 1.19 1.40 1.41 1.27
1.25 1.28 1.30 1.30 1.30 1.31 1.27 1.26 1.25 1.21 1.14 1.05 0.94 0.94 0.93 0.88 0.83 0.77 0.64 0.54 0.56 0.68 0.82 1.07 1.16 1.03 0.88 0.73 0.64 0.58 0.48 0.40 0.42 0.44 0.42 0.42 0.47 0.59 0.80 1.14 1.48 1.61 1.51
1.26 1.17 1.07 1.04 1.04 1.08 1.12 1.13 1.16 1.12 1.08 1.01 0.94 0.96 0.93 0.88 0.80 0.76 0.70 0.59 0.59 0.68 0.75 0.92 1.05 1.07 0.97 0.89 0.79 0.66 0.54 0.50 0.48 0.47 0.46 0.49 0.57 0.68 0.81 0.96 1.28 1.53 1.57
1.31 1.23 1.17 1.10 1.05 1.04 1.06 1.11 1.09 1.08 1.06 0.99 0.95 1.00 0.99 0.95 0.92 0.86 0.83 0.80 0.78 0.82 0.80 0.88 1.01 1.10 1.11 1.07 1.04 0.93 0.81 0.73 0.64 0.59 0.64 0.65 0.70 0.76 0.78 0.87 1.08 1.27 1.27
1.32 1.22 1.19 1.18 1.16 1.13 1.09 1.11 1.15 1.04 1.04 0.98 0.98 0.99 1.00 0.94 0.84 0.70 0.67 0.66 0.61 0.58 0.57 0.71 0.89 1.04 1.17 1.21 1.23 1.17 1.04 0.94 0.84 0.81 0.82 0.79 0.76 0.79 0.80 0.82 0.96 1.11 1.13
1.32 1.27 1.21 1.19 1.21 1.19 1.14 1.10 1.13 1.07 0.91 0.83 0.81 0.77 0.74 0.69 0.58 0.52 0.50 0.49 0.45 0.39 0.39 0.56 0.72 0.86 1.02 1.16 1.20 1.15 1.07 1.04 1.04 1.02 1.00 0.95 0.88 0.87 0.90 0.89 0.90 1.03 1.09
1.28 1.30 1.26 1.19 1.15 1.11 1.07 1.04 1.02 1.02 0.95 0.81 0.70 0.62 0.56 0.50 0.51 0.50 0.45 0.42 0.37 0.33 0.34 0.50 0.64 0.77 0.91 1.08 1.13 1.12 1.13 1.15 1.15 1.10 1.11 1.11 1.07 1.01 1.00 0.98 0.94 0.96 1.05
0.99 0.98 0.96 0.96 0.96 0.94 0.89 0.83 0.79 0.78 0.80 0.82 0.70 0.54 0.52 0.48 0.53 0.59 0.48 0.43 0.45 0.43 0.44 0.49 0.56 0.67 0.84 1.00 1.13 1.17 1.19 1.18 1.17 1.19 1.18 1.19 1.21 1.16 1.05 1.04 1.08 1.07 1.05
0.64 0.73 0.68 0.62 0.64 0.66 0.67 0.66 0.63 0.66 0.72 0.80 0.74 0.58 0.51 0.52 0.65 0.75 0.61 0.60 0.63 0.59 0.58 0.62 0.64 0.70 0.87 1.04 1.16 1.25 1.30 1.27 1.23 1.24 1.24 1.24 1.23 1.21 1.12 1.10 1.18 1.17 1.05
0.45 0.44 0.44 0.37 0.42 0.52 0.57 0.55 0.54 0.60 0.68 0.77 0.71 0.53 0.47 0.51 0.76 0.86 0.79 0.77 0.75 0.72 0.72 0.69 0.64 0.68 0.83 1.00 1.10 1.21 1.30 1.29 1.22 1.20 1.26 1.30 1.23 1.17 1.13 1.14 1.18 1.23 1.17
0.35 0.33 0.30 0.28 0.35 0.41 0.42 0.48 0.57 0.65 0.70 0.74 0.68 0.56 0.54 0.62 0.81 0.88 0.82 0.82 0.81 0.78 0.73 0.71 0.68 0.70 0.81 0.94 1.01 1.11 1.25 1.27 1.23 1.21 1.27 1.36 1.30 1.20 1.16 1.14 1.14 1.22 1.27
0.31 0.30 0.28 0.30 0.36 0.37 0.38 0.46 0.61 0.68 0.70 0.71 0.69 0.68 0.69 0.76 0.81 0.85 0.83 0.79 0.78 0.79 0.81 0.83 0.84 0.84 0.89 0.99 1.03 1.10 1.24 1.24 1.19 1.20 1.25 1.28 1.26 1.22 1.20 1.15 1.14 1.20 1.24
0.25 0.28 0.27 0.27 0.28 0.32 0.38 0.42 0.48 0.54 0.59 0.63 0.65 0.67 0.68 0.70 0.75 0.75 0.76 0.76 0.78 0.80 0.82 0.88 0.90 0.91 0.94 0.98 0.99 1.00 1.09 1.08 1.01 1.00 1.04 1.12 1.14 1.15 1.15 1.13 1.09 1.11 1.16
0.25 0.29 0.29 0.29 0.28 0.30 0.35 0.41 0.46 0.51 0.55 0.57 0.59 0.62 0.65 0.65 0.69 0.73 0.76 0.78 0.77 0.78 0.76 0.77 0.81 0.84 0.83 0.79 0.81 0.84 0.89 0.85 0.79 0.78 0.87 0.98 1.00 1.01 1.01 0.99 0.99 1.03 1.11
0.26 0.31 0.35 0.39 0.38 0.36 0.39 0.45 0.51 0.52 0.54 0.54 0.57 0.61 0.66 0.69 0.69 0.73 0.74 0.73 0.72 0.74 0.71 0.73 0.76 0.72 0.71 0.69 0.64 0.65 0.64 0.59 0.60 0.64 0.68 0.78 0.86 0.88 0.91 0.92 0.90 0.95 1.01